{"data":{"norad_id":67174,"epoch":"2026-05-24T14:27:35.260416Z","epoch_age_seconds":99455,"freshness":"FRESH","line1":"1 67174U 25303M   26144.60249144  .00008032  00000+0  30108-3 0  9992","line2":"2 67174  43.0007 242.1226 0001628 271.0626  89.0039 15.27581506 24343","mean_motion":15.27581506,"eccentricity":0.0001628,"inclination_deg":43.0007,"raan_deg":242.1226,"arg_perigee_deg":271.0626,"mean_anomaly_deg":89.0039,"bstar":0.00030108,"rev_number":2434,"period_min":94.266655778693,"perigee_km":481.92758617529,"apogee_km":484.16158689987,"semimajor_km":6861.1815865376,"source":"CELESTRAK","updated_at":"2026-05-25T13:38:21.482013Z"}}